Find Starlink 31631

NORAD ID: 59459 Int'l Des: 2024-068 Owner: SPXS Country: US Constellation: starlink operational
LEOCIRCULAR

Live Position

Loading 3D Globe...

About Starlink 31631

Description loading...

Upcoming Passes

Passes for default location (London). Set your location on the main map for personalized predictions.

Altitude History

Loading altitude history...

Two-Line Element Set

1 59459U 24068E 26124.57913333 .00000032 00000-0 10697-4 0 9993
2 59459 43.0037 75.1383 0000897 276.5351 83.5398 15.27571716117110
Epoch: May 4, 2026 • Age: 14 hours

Current Status

Altitude 482.2 km
Velocity 7.63 km/s
Sub-Earth Point 11.83°N, 160.18°E
Launch Date Apr 10, 2024
Age 2 years
Type internet

Technical Details

Classification Payload
Mass 730.00 kg
Dry Mass 700.00 kg
Total Mass 730.00 kg
Length 0.30 m
Diameter 4.10 m
Span 29.00 m
Shape Box + pan
Manufacturer SPXS
Bus Type Starlink V2M
Phase Status In Orbit
Owner/State SPXS/US

Most Searched